Montpelier, VT

5:42 AM EST on November 12, 2019 (GMT -0500)
Knapp State

Weather History for KMPV - September, 2019

Change the Weather History Date:

Saturday, September 7, 2019

  Actual Average Record
Temperature  
Mean Temperature 58 °F 61 °F  
Max Temperature 68 °F 72 °F 88 °F (2007)
Min Temperature 48 °F 49 °F 33 °F (1962)
Degree Days  
Heating Degree Days 7 5  
Month to date heating degree days 41 32  
Since 1 July heating degree days 109 140  
Cooling Degree Days 0 1  
Month to date cooling degree days 0 7  
Year to date cooling degree days 211 251  
Growing Degree Days 8 (Base 50)    
Moisture  
Dew Point 50 °F    
Average Humidity 82    
Maximum Humidity 96    
Minimum Humidity 45    
Precipitation  
Precipitation 0.24 in 0.09 in 0.54 in (1969)
Month to date precipitation 1.21 0.63  
Year to date precipitation 36.01 25.43  
Sea Level Pressure  
Sea Level Pressure 29.83 in    
Wind  
Wind Speed 4 mph ()    
Max Wind Speed 13 mph    
Max Gust Speed 18 mph    
Visibility 9.5 miles    
Events Rain    
T = Trace of Precipitation, MM = Missing Value Source: Averaged Metar Reports

Daily Weather History Graph

Daily Weather History Graph

Search for Another Location

Airport or City:

Astronomy

Sep. 07, 2019 Rise Set
Actual Time 6:19 AM EDT 7:15 PM EDT
Civil Twilight 5:50 AM EDT 7:45 PM EDT
Nautical Twilight 5:15 AM EDT 8:20 PM EDT
Astronomical Twilight 4:38 AM EDT 8:57 PM EDT
Moon 3:39 PM EDT (9/7) No Moon Set
Length of Visible Light 13h 55m
Length of Day
12h 56m
Waxing Gibbous, 65% of the Moon is Illuminated
Sep 7
Waxing Gibbous
Sep 14
Full
Sep 21
Last Quarter
Sep 28
New
Oct 5
First Quarter

Hourly Weather History & Observations

Time (EDT) Temp. Dew Point Humidity Pressure Visibility Wind Dir Wind Speed Gust Speed Precip Events Conditions
12:51 AM 52.0 °F 48.0 °F 86% 29.94 in 10.0 mi Calm Calm - N/A   Clear
1:51 AM 52.0 °F 50.0 °F 93% 29.91 in 10.0 mi NE 3.5 mph - N/A   Partly Cloudy
2:51 AM 52.0 °F 50.0 °F 93% 29.90 in 10.0 mi Calm Calm - N/A   Clear
3:51 AM 51.1 °F 48.9 °F 92% 29.87 in 10.0 mi North 4.6 mph - N/A   Partly Cloudy
4:51 AM 51.1 °F 48.9 °F 92% 29.87 in 10.0 mi West 3.5 mph - N/A   Clear
5:51 AM 50.0 °F 48.0 °F 93% 29.87 in 10.0 mi NW 3.5 mph - N/A   Clear
6:51 AM 48.0 °F 46.0 °F 93% 29.86 in 10.0 mi Calm Calm - N/A   Mostly Cloudy
7:51 AM 50.0 °F 48.9 °F 96% 29.86 in 10.0 mi Calm Calm - N/A   Mostly Cloudy
8:51 AM 54.0 °F 48.9 °F 83% 29.86 in 10.0 mi NNW 4.6 mph - N/A   Clear
9:51 AM 57.9 °F 48.9 °F 72% 29.84 in 10.0 mi NW 5.8 mph - N/A   Clear
10:51 AM 60.1 °F 48.0 °F 64% 29.83 in 10.0 mi NE 3.5 mph - N/A   Clear
11:51 AM 64.0 °F 46.9 °F 54% 29.82 in 10.0 mi Calm Calm - N/A   Partly Cloudy
12:51 PM 64.0 °F 46.9 °F 54% 29.79 in 10.0 mi North 8.1 mph - N/A   Mostly Cloudy
1:51 PM 66.0 °F 48.9 °F 54% 29.77 in 10.0 mi WNW 8.1 mph - N/A   Mostly Cloudy
2:51 PM 68.0 °F 46.0 °F 45% 29.76 in 10.0 mi NW 10.4 mph - N/A   Scattered Clouds
3:51 PM 63.0 °F 46.0 °F 54% 29.78 in 10.0 mi WNW 8.1 mph - N/A   Overcast
4:51 PM 60.1 °F 48.9 °F 67% 29.80 in 8.0 mi WNW 11.5 mph - 0.00 in Rain Light Rain
5:51 PM 55.0 °F 53.1 °F 93% 29.81 in 4.0 mi WSW 5.8 mph - 0.07 in Rain Rain
6:12 PM 55.0 °F 53.1 °F 93% 29.81 in 5.0 mi West 4.6 mph - 0.02 in Rain Light Rain
6:51 PM 55.0 °F 54.0 °F 96% 29.82 in 7.0 mi Calm Calm - 0.05 in Rain Light Rain
7:39 PM 55.9 °F 52.0 °F 87% 29.81 in 10.0 mi WNW 8.1 mph - 0.00 in   Mostly Cloudy
7:51 PM 55.0 °F 52.0 °F 89% 29.82 in 10.0 mi WNW 9.2 mph - 0.00 in   Mostly Cloudy
8:00 PM 55.0 °F 52.0 °F 89% 29.81 in 10.0 mi West 6.9 mph - N/A   Mostly Cloudy
8:38 PM 55.0 °F 52.0 °F 89% 29.82 in 10.0 mi WNW 6.9 mph - 0.00 in Rain Light Rain
9:51 PM 55.0 °F 52.0 °F 89% 29.83 in 10.0 mi WNW 6.9 mph - 0.01 in   Overcast
10:13 PM 55.0 °F 52.0 °F 89% 29.83 in 10.0 mi WNW 6.9 mph - N/A   Overcast
10:28 PM 55.0 °F 52.0 °F 89% 29.83 in 10.0 mi WNW 6.9 mph - 0.00 in   Mostly Cloudy
10:35 PM 55.0 °F 52.0 °F 89% 29.83 in 10.0 mi West 4.6 mph - 0.00 in   Overcast
10:51 PM 54.0 °F 52.0 °F 93% 29.83 in 10.0 mi WSW 3.5 mph - 0.00 in   Mostly Cloudy
11:02 PM 54.0 °F 52.0 °F 93% 29.83 in 10.0 mi West 4.6 mph - N/A   Scattered Clouds
11:51 PM 54.0 °F 52.0 °F 93% 29.83 in 10.0 mi WSW 3.5 mph - N/A   Overcast